Regional Weather Roundup
Issued by NWS New Orleans/Baton Rouge, LA

Home | Current Version | Previous Version | Graphics & Text | Print | Product List | Glossary On
Versions: 1 2 3 4 5 6 7 8 9 10 11 12 13 14 15 16 17 18 19 20 21 22 23 24 25 26 27 28 29 30 31 32 33 34 35 36 37 38 39 40 41 42 43 44 45 46 47 48 49 50
250
ASUS44 KLIX 231005
RWRLIX
NEW ORLEANS REGIONAL WEATHER ROUNDUP
NATIONAL WEATHER SERVICE NEW ORLEANS LA
500 AM CDT TUE SEP 23 2014

NOTE: "FAIR" INDICATES FEW OR NO CLOUDS BELOW 12,000 FEET WITH NO
      SIGNIFICANT WEATHER AND/OR OBSTRUCTIONS TO VISIBILITY.
      SKY/WX - SKY CONDITION AND SIGNIFICANT WEATHER.
      TMP - AIR TEMPERATURE.     DP    - DEWPOINT TEMPERATURE.
      RH  - RELATIVE HUMIDITY.   PRES  - PRESSURE.
      HI  - HEAT INDEX.          WCI   - WIND CHILL INDEX.

*  THESE STATIONS ARE NOT NWS OR FAA STATIONS AND ARE NOT UNDER
   NWS QUALITY CONTROL.

LAZ038-040-048-061>063-065>067-069-231100-
SOUTHEAST LOUISIANA

CITY           SKY/WX    TMP DP  RH WIND       PRES   REMARKS
N.O. AUDUBON     N/A     70  56  61 MISG        N/A
N.O. INTL ARPT CLEAR     72  56  57 NE14      30.05S
N.O. LAKEFRONT CLEAR     72  57  59 NE22      30.06R
N.O. DOWNTOWN*   N/A     70  54  56 NE8       30.06R
SLIDELL        CLEAR     60  54  80 N5        30.07R
BATON ROUGE    CLEAR     61  54  77 NE8       30.08S
BOOTHVILLE     CLEAR     79  62  56 NE13G20   30.01S
BELLE CHASSE   CLEAR     68  56  65 NE10      30.04S
BOGALUSA*        N/A     57  53  85 N6        30.10R
GALLIANO*      NOT AVBL
NEW ROADS*       N/A     62  53  73 NE7       30.09R
GONZALES*        N/A     62  58  89 NE3       30.06S
HAMMOND*       CLEAR     61  52  72 N5        30.10R
HOUMA*         CLEAR     66  47  49 NE6       30.04R
PORT FOURCHON* SUNNY     77  64  65 NE15G23   30.04S

$$

MSZ070-080>082-231100-
SOUTHERN MISSISSIPPI

CITY           SKY/WX    TMP DP  RH WIND       PRES   REMARKS
MCCOMB         CLEAR     61  52  72 N6        30.10S
GULFPORT       CLEAR     62  53  72 N5        30.06S
BILOXI         CLEAR     63  55  74 NE8       30.06S
PASCAGOULA     CLEAR     56  54  93 N6        30.06S

$$

COASTAL OBSERVATIONS
LAKE AND NEARSHORE STATIONS

STATION/POSITION TIME  TEMP    WIND        PRES    WAVE
                       AIR SEA DIR/SP/G            HT/PER
                 (UTC) (F)     (DEG/KT/KT) (MB)    (FT/S)
PASCAGOULA       1000   65      30/  8/ 12 1016.9
WAVELAND YACHT   1000   67      40/ 12/ 15 1017.1
GRAND ISLE       1000   76 81   40/ 11/ 18 1016.7
SOUTHWEST PASS   1000   83 88   70/ 17/ 21 1015.9
NEW CANAL        1000   73 79   60/ 21/ 25 1017.7
SHELL BEACH      1000   75 76   50/ 20/ 23 1017.0

OFFSHORE STATIONS

STATION/POSITION TIME  TEMP    WIND        PRES    WAVE
                       AIR SEA DIR/SP/G            HT/PER
                 (UTC) (F)     (DEG/KT/KT) (MB)    (FT/S)
64 S DAUPHIN ISL 0857   80 83   60/ 19/ 23 1015.6    5/ 6

$$




USA.gov is the U.S. government's official web portal to all federal, state and local government web resources and services.